Location: Martley
(52.2333°N, 2.3667°W)
Time: 08:21:26
(UTC+00:00)

CZ-4C R/B - Pass Details

Date: 11 December 2019
Orbit: 646 x 1356 km, 63.4° (Epoch: 25 January)

Event Time Altitude Azimuth Distance (km) Brightness Sun altitude
Exits shadow 04:21:25 40° 178° (S) 1,773 3.7 -33.3°
Drops below altitude 10° 04:26:36 10° 158° (SSE) 3,329 5.4 -32.5°
Sets 04:29:37 0° 155° (SSE) 4,341 6.1 -32.1°
